FENGYUN 1C DEB

Satellite information

Favourite Embed

Satellite Type and Status

DEBRISIN ORBIT

Key statistics

Satellite FENGYUN 1C DEB at a glance.

Uptime

9555

Days in orbit

Revolutions

≈ 14.0

Per day

Orbit

SSO

Sun Synchronous Orbit

Inclination

99.1

Latest

Satellite identification and parameters

Extended collection of information and parameters for FENGYUN 1C DEB.

Object identification

Identified? True

Debris? True

Object name: FENGYUN 1C DEB

International designator: 1999-025EEU

Object number (NORAD): 37060

Object ID (CCSDS): 37060

Country: PEOPLES REPUBLIC OF CHINA (PRC)

Current information (Y/N): Y

RCS size: SMALL

Orbital parameters

Period: 102.825 minutes

Inclination: 99.1204 deg

SMA: 7270.431 km

Apoapsis: 952.619 km

Periapsis: 831.973 km

RAAN: 233.0426 deg

Eccentricy: 0.008297

Argument of periapsis: 102.9368 deg

Mean anomaly: 258.1078 deg

Mean motion: 14.00433582 rev/day

Mean motion (dot): 0.0000009 rev/day2

B* drag term: 0.000088099 1/REarth

Two-line elements (TLE)

Creation date: June 24, 2025, 5:32 p.m.

Reference frame: TEME

Reference center: EARTH

Epoch: June 23, 2025, 11:26 p.m. UTC

TLE line 0: 0 FENGYUN 1C DEB

TLE line 1: 1 37060U 99025EEU 25174.97648383 .00000090 00000-0 88099-4 0 9995

TLE line 2: 2 37060 99.1204 233.0426 0082970 102.9368 258.1078 14.00433582603020

Live tracking on map

Real-time ground track for satellite FENGYUN 1C DEB.

In-orbit conjunctions

A list of the most updated potential collisions computed for object FENGYUN 1C DEB.

Target Orbit TCA Probability of collision Miss distance Type
SL-14 DEB LEO 2025-03-11 06:00:34 0.0001028089 65.0 (m) DEBRIS
COSMOS 1275 DEB LEO 2024-08-09 17:24:12 0.0001104022 156.0 (m) DEBRIS

Associated space launch

Chinese polar orbiting meteorological satellite

FENGYUN 1C DEB was lifted into orbit during the mission ‘Long March 4B | Feng Yun 1C’, on board a Long March 4B space rocket.

The launch took place on May 10, 1999, 1:33 a.m. from Launch Complex 7.

For more information about the launch, click the button.

Launch to space Long March 4B | Feng Yun 1C
Long March 4B | Feng Yun 1C

Agency: N/A

Status: Launch Successful

Launch date: May 10, 1999, 1:33 a.m. UTC

Rocket: Long March 4B

Launch pad: Launch Complex 7

Location: Taiyuan Satellite Launch Center, People's Republic of China

...

Latest news about this satellite

There are no fresh news available about this satellite. Check back as we update our databases every day.


Newsletter sign-up

Weekly statistics, charts and insights to help you stay on top of the space industry.